This is the latest recevied weather packets stored in our database for station/object F1PPH-1. If no packets are shown the sender has not sent any weather packets the latest 10 day(s).
| Time | Temp. | Humidity | Pressure | Rain* | Wind** | Luminosity | Snow |
|---|---|---|---|---|---|---|---|
| 1777552328 | 35° C | 28% | 1010 hPa | - | - | - | - |
| 1777549449 | 33.33° C | 29% | 1010 hPa | - | - | - | - |
| 1777546570 | 30° C | 30% | 1010.1 hPa | - | - | - | - |
| 1777543689 | 26.67° C | 31% | 1010.2 hPa | - | - | - | - |
| 1777535048 | 19.44° C | 33% | 1010.1 hPa | - | - | - | - |
| 1777528566 | 16.67° C | 33% | 1009.6 hPa | - | - | - | - |
| 1777525687 | 16.11° C | 33% | 1009.2 hPa | - | - | - | - |
| 1777522806 | 16.67° C | 32% | 1008.8 hPa | - | - | - | - |
| 1777517044 | 17.78° C | 32% | 1008.7 hPa | - | - | - | - |
| 1777514165 | 18.33° C | 32% | 1008.6 hPa | - | - | - | - |
| 1777508406 | 20° C | 31% | 1008.1 hPa | - | - | - | - |
| 1777504804 | 20.56° C | 31% | 1008.2 hPa | - | - | - | - |
| 1777497604 | 22.22° C | 31% | 1007.8 hPa | - | - | - | - |
| 1777494005 | 23.33° C | 31% | 1007.3 hPa | - | - | - | - |
| 1777490406 | 25.56° C | 30% | 1006.7 hPa | - | - | - | - |
| 1777486852 | 27.22° C | 30% | 1006.1 hPa | - | - | - | - |
| 1777483251 | 28.89° C | 30% | 1005.6 hPa | - | - | - | - |
| 1777479653 | 30° C | 30% | 1005.6 hPa | - | - | - | - |
| 1777476771 | 31.67° C | 29% | 1005.7 hPa | - | - | - | - |
| 1777473891 | 32.22° C | 29% | 1006 hPa | - | - | - | - |
| 1777471014 | 32.78° C | 30% | 1006.2 hPa | - | - | - | - |
| 1777468129 | 33.33° C | 31% | 1006.1 hPa | - | - | - | - |
| 1777465249 | 32.78° C | 32% | 1006.3 hPa | - | - | - | - |
| 1777462370 | 31.11° C | 33% | 1006.5 hPa | - | - | - | - |
| 1777459489 | 31.11° C | 34% | 1007 hPa | - | - | - | - |
* Rain since midnight (hover to see other rain measurements)
** Current wind speed in m/s (hover to see current wind gust speed)